[[{"header":{"parameterUnit":"m.s-1","parameterCategory":1,"la1":30.2991,"la2":30.254,"lo1":-89.0895,"lo2":-89.0444,"dy":0.0017,"dx":0.0017,"nx":28,"ny":28,"refTime":"2026-02-02T09:00:00:Z","depth":0,"parameterNumber":2,"parameterNumberName":"U-component_of_WINDS"},"data":[0,0,0,0,0,0,0,0,0,0,0,0,0,0,0,0,0,0,0,0,0,0,0,0,0,0,0,0,0,0,0,0,0,0,0,0,0,0,0,0,0,0,0,0,0,0,0,0,0,0,0,0,0,0,0,0,0,0,0.6209,0.621,0,0.6361,0.6362,0.6364,0.6401,0.64,0.6399,0.6398,0.6555,0.656,0.6565,0,0,0,0,0,0,0,0,0,0,0,0,0,0.5951,0.5955,0.6208,0.621,0.6212,0.636,0.6363,0.6365,0.6402,0.64,0.6399,0.6398,0.6554,0.656,0.6566,0,0,0,0,0,0,0,0,0,0,0,0,0,0.6079,0.5957,0.6208,0.6248,0.6254,0.636,0.6363,0.6365,0.6402,0.64,0.6399,0.6397,0.6552,0.6559,0.6567,0.6644,0,0,0.659,0.6593,0,0,0,0,0,0,0,0,0.6071,0.6088,0.6241,0.6246,0.6252,0.6361,0.6329,0.6459,0.6402,0.6346,0.6398,0.6397,0.6492,0.6504,0.6536,0.6651,0.6658,0.6591,0.6595,0.6599,0.6601,0,0,0,0,0,0,0,0.6062,0.6082,0.6269,0.6243,0.625,0.6259,0.6276,0.6354,0.6425,0.635,0.6353,0.6371,0.6495,0.6529,0.654,0.666,0.6591,0.6597,0.6602,0.6605,0.6846,0.6848,0,0,0,0,0,0,0.6046,0.6074,0.6264,0.6273,0.6156,0.6265,0.6284,0.6327,0.6425,0.6438,0.6372,0.6372,0.6516,0.6531,0.6546,0.6642,0.6599,0.6606,0.661,0.6845,0.6847,0.6849,0,0,0,0,0,0,0.6041,0.6063,0.6258,0.6175,0.62,0.6271,0.632,0.6331,0.6365,0.6441,0.6454,0.6394,0.6516,0.6535,0.6619,0.6648,0.6609,0.6616,0.6842,0.6845,0.6848,0.6836,0,0,0,0,0,0,0.6033,0.6061,0.609,0.6175,0.6204,0.6328,0.6322,0.6335,0.6378,0.638,0.6465,0.6477,0.6516,0.6607,0.6627,0.6658,0.6622,0.684,0.6844,0.6847,0.6834,0.6838,0.6841,0,0,0,0,0,0.6024,0.6081,0.6092,0.6115,0.6243,0.633,0.6347,0.639,0.638,0.6411,0.646,0.6475,0.6642,0.6616,0.6638,0.6672,0.6839,0.6843,0.6847,0.6832,0.6837,0.6841,0,0,0,0,0,0,0.5999,0.6093,0.6106,0.6192,0.6253,0.6336,0.6376,0.6393,0.6458,0.6457,0.6508,0.6527,0.6607,0.6648,0.6617,0.6752,0.674,0.6749,0.6722,0.6727,0.673,0.6719,0.6629,0,0,0,0,0,0.6003,0.6065,0.6145,0.6213,0.6243,0.6304,0.6344,0.6372,0.6436,0.6462,0.6517,0.6579,0.6646,0.6689,0.6755,0.684,0.6859,0.6875,0.6878,0.6881,0.6887,0.6936,0.6943,0.6862,0.6862,0.6862,0,0,0.6013,0.6072,0.6109,0.621,0.626,0.6323,0.6325,0.6392,0.644,0.6472,0.6555,0.6597,0.6671,0.6756,0.6796,0.6792,0.6914,0.6886,0.6888,0.6893,0.6941,0.6948,0.6955,0.6865,0.6864,0.6864,0,0,0.6063,0.6115,0.6177,0.6227,0.6303,0.6343,0.6358,0.6439,0.6469,0.6552,0.6578,0.6635,0.6749,0.68,0.6841,0.6911,0.6927,0.6931,0.6949,0.6996,0.7002,0.7008,0.7032,0.704,0.6938,0.6938,0.6938,0,0.6066,0.6162,0.6207,0.6273,0.6317,0.6349,0.6413,0.646,0.6553,0.6582,0.6577,0.672,0.6772,0.6869,0.6886,0.6919,0.6937,0.6921,0.6997,0.7004,0.701,0.7034,0.7043,0.6937,0.6937,0.6937,0.6937,0,0.6162,0.6228,0.627,0.6358,0.6407,0.6472,0.6526,0.657,0.6594,0.6635,0.672,0.6783,0.6862,0.6887,0.6912,0.6988,0.6983,0.6987,0.6976,0.7017,0.704,0.705,0.6937,0.6937,0.6937,0.6937,0,0,0.6199,0.6313,0.6327,0.6368,0.6454,0.6506,0.6572,0.6649,0.6685,0.6749,0.6805,0.6901,0.6905,0.6951,0.6982,0.7023,0.7073,0.7022,0.7024,0.7028,0.7161,0.7157,0.7167,0.7085,0.7087,0.7088,0.7154,0,0.626,0.6378,0.6421,0.6518,0.658,0.6612,0.667,0.6729,0.6769,0.6827,0.6872,0.6939,0.6939,0.6967,0.7009,0.7058,0.71,0.7054,0.7138,0.714,0.7117,0.7179,0.7175,0.7234,0.7164,0.7166,0.7167,0,0.6345,0.6409,0.6513,0.6591,0.6619,0.667,0.6743,0.6799,0.6867,0.6893,0.6945,0.6973,0.7043,0.7029,0.7127,0.7094,0.7131,0.7161,0.7164,0.7173,0.7155,0.7188,0.7255,0.7263,0.7182,0.718,0.7179,0,0.6361,0.6474,0.655,0.6584,0.6678,0.6713,0.6753,0.682,0.6863,0.6928,0.6957,0.7029,0.7068,0.7124,0.717,0.7156,0.7264,0.7253,0.7288,0.7286,0.7308,0.7306,0.738,0.7333,0.7333,0.7333,0.7333,0,0.6423,0.6485,0.6559,0.6605,0.6676,0.6725,0.6793,0.6836,0.6895,0.6951,0.6983,0.7035,0.7094,0.7153,0.7191,0.7266,0.7284,0.7307,0.7316,0.7303,0.73,0.7328,0.7324,0.7335,0.7335,0.7334,0.7334,0,0.6452,0.6504,0.659,0.6671,0.6693,0.6741,0.6811,0.6858,0.69,0.697,0.699,0.7056,0.7127,0.718,0.7273,0.7298,0.7378,0.7387,0.7355,0.7359,0.739,0.7386,0.7483,0.7498,0.7442,0.7442,0.7443,0,0.6488,0.6536,0.6623,0.6663,0.6703,0.6767,0.6811,0.6862,0.6907,0.6988,0.7025,0.7099,0.7161,0.7274,0.733,0.7402,0.7412,0.7442,0.7423,0.7409,0.7412,0.7408,0.7413,0.7444,0.7444,0.7445,0.7445,0,0.6546,0.6569,0.6631,0.6703,0.6755,0.6814,0.6874,0.6904,0.6965,0.7014,0.7088,0.7136,0.7231,0.7304,0.7381,0.7423,0.7444,0.745,0.7462,0.7449,0.7428,0.7439,0.7361,0.7448,0.7447,0.7447,0.7447,0.7447,0.6579,0.6623,0.6691,0.676,0.681,0.6865,0.6912,0.696,0.7023,0.7103,0.713,0.7206,0.7273,0.7378,0.7422,0.7482,0.7481,0.7498,0.7502,0.7505,0.7504,0.7419,0.7496,0.7496,0.7496,0.7496,0.7496,0,0.6637,0.6682,0.6745,0.6827,0.6881,0.6897,0.6963,0.7008,0.7074,0.7135,0.7195,0.728,0.7351,0.7413,0.7487,0.7523,0.7535,0.7541,0.7538,0.7548,0.7501,0.7483,0.753,0.753,0.753,0.753,0.753,0.753,0.6674,0.6749,0.6781,0.6881,0.6927,0.7001,0.7038,0.7089,0.7138,0.7231,0.729,0.733,0.7391,0.747,0.7536,0.7552,0.7578,0.7581,0.76,0.7555,0.7551,0.7547,0.7531,0.7587,0.7587,0.7641,0.7642,0.7642]},{"header":{"parameterUnit":"m.s-1","parameterCategory":1,"la1":30.2991,"la2":30.254,"lo1":-89.0895,"lo2":-89.0444,"dy":0.0017,"dx":0.0017,"nx":28,"ny":28,"refTime":"2026-02-02T09:00:00:Z","depth":0,"parameterNumber":3,"parameterNumberName":"V-component_of_WINDS"},"data":[0,0,0,0,0,0,0,0,0,0,0,0,0,0,0,0,0,0,0,0,0,0,0,0,0,0,0,0,0,0,0,0,0,0,0,0,0,0,0,0,0,0,0,0,0,0,0,0,0,0,0,0,0,0,0,0,0,0,3.0515,3.0517,0,3.072,3.0723,3.0725,3.075,3.0748,3.0746,3.0744,3.0951,3.0958,3.0965,0,0,0,0,0,0,0,0,0,0,0,0,0,3.0142,3.0149,3.0515,3.0518,3.052,3.072,3.0723,3.0725,3.075,3.0747,3.0745,3.0743,3.0949,3.0957,3.0966,0,0,0,0,0,0,0,0,0,0,0,0,0,3.0321,3.0151,3.0515,3.0556,3.0562,3.0719,3.0723,3.0726,3.075,3.0747,3.0744,3.0742,3.0946,3.0956,3.0967,3.1096,0,0,3.1001,3.1006,0,0,0,0,0,0,0,0,3.0311,3.0335,3.0548,3.0554,3.0561,3.0706,3.0667,3.085,3.0751,3.0679,3.0744,3.074,3.0872,3.0889,3.0934,3.1106,3.1115,3.1002,3.1009,3.1014,3.1017,0,0,0,0,0,0,0,3.0299,3.0326,3.0596,3.0551,3.0559,3.0564,3.0586,3.0702,3.079,3.0685,3.0687,3.0711,3.0875,3.0923,3.0939,3.1118,3.1002,3.1012,3.1019,3.1023,3.1405,3.1408,0,0,0,0,0,0,3.0279,3.0316,3.059,3.0602,3.0426,3.0573,3.0598,3.0662,3.0788,3.0805,3.0714,3.0712,3.0906,3.0926,3.0946,3.1105,3.1014,3.1024,3.103,3.1402,3.1406,3.141,0,0,0,0,0,0,3.0271,3.0303,3.0581,3.046,3.0496,3.0583,3.0655,3.0668,3.0717,3.081,3.0826,3.0747,3.0904,3.0931,3.1059,3.1113,3.1029,3.1039,3.1397,3.1403,3.1408,3.1424,0,0,0,0,0,0,3.026,3.03,3.035,3.0461,3.0502,3.0691,3.0658,3.0674,3.0736,3.0735,3.0846,3.0861,3.0904,3.1042,3.107,3.1126,3.1048,3.1393,3.14,3.1406,3.1419,3.1429,3.1438,0,0,0,0,0,3.0247,3.0346,3.0353,3.0386,3.0567,3.0694,3.0718,3.0766,3.074,3.0791,3.0851,3.0858,3.1102,3.1055,3.1086,3.1147,3.139,3.1398,3.1406,3.1415,3.1427,3.1437,0,0,0,0,0,0,3.0239,3.0361,3.037,3.0509,3.0591,3.0698,3.0764,3.0777,3.0868,3.0863,3.0918,3.0943,3.1068,3.1121,3.1066,3.1278,3.1243,3.1258,3.124,3.1252,3.1261,3.1246,3.1057,0,0,0,0,0,3.0254,3.0348,3.0449,3.0561,3.0602,3.0676,3.0733,3.0763,3.085,3.0885,3.0955,3.1038,3.1134,3.1196,3.1289,3.1426,3.1451,3.1484,3.1493,3.15,3.1512,3.1589,3.1604,3.1435,3.1435,3.1435,0,0,3.0285,3.0363,3.0419,3.0562,3.0629,3.0725,3.0705,3.0807,3.0878,3.09,3.1026,3.108,3.1176,3.131,3.1372,3.1357,3.1564,3.151,3.1515,3.1524,3.1598,3.1614,3.1628,3.1441,3.144,3.1439,0,0,3.039,3.0459,3.056,3.0628,3.073,3.0779,3.0803,3.0909,3.0946,3.1073,3.1091,3.1176,3.134,3.1408,3.1464,3.1595,3.1604,3.1624,3.1673,3.1747,3.176,3.1772,3.1819,3.1835,3.1635,3.1635,3.1635,0,3.0415,3.0561,3.061,3.0712,3.0774,3.0799,3.0902,3.0965,3.1092,3.1134,3.1116,3.1322,3.1389,3.1539,3.157,3.1615,3.1644,3.1612,3.1754,3.1767,3.1779,3.1824,3.1841,3.1637,3.1637,3.1637,3.1637,0,3.0587,3.0687,3.0756,3.088,3.0949,3.1051,3.1115,3.118,3.1203,3.1253,3.1382,3.1463,3.1573,3.1611,3.1634,3.1764,3.1752,3.1743,3.1709,3.1796,3.1839,3.1857,3.164,3.1639,3.1638,3.1638,0,0,3.0693,3.0843,3.0867,3.0923,3.1038,3.1116,3.1219,3.1327,3.1382,3.1468,3.1555,3.1693,3.1686,3.175,3.1781,3.1846,3.1944,3.183,3.1833,3.1848,3.2092,3.2098,3.2117,3.1951,3.1954,3.1957,3.2084,0,3.0812,3.0996,3.1043,3.1199,3.1293,3.1317,3.1406,3.1486,3.1535,3.1621,3.1675,3.1772,3.1755,3.1794,3.1859,3.1919,3.1994,3.191,3.2032,3.2035,3.2007,3.214,3.2147,3.2262,3.2101,3.2104,3.2106,0,3.0975,3.1066,3.1231,3.1334,3.1375,3.1454,3.1558,3.1639,3.173,3.1761,3.1832,3.1858,3.1964,3.1925,3.2072,3.2014,3.2066,3.2103,3.2108,3.2122,3.2076,3.2157,3.23,3.2318,3.2133,3.2131,3.2129,0,3.1036,3.12,3.132,3.1368,3.149,3.1545,3.1599,3.1687,3.1749,3.1839,3.188,3.198,3.2035,3.2112,3.2164,3.213,3.2307,3.2272,3.2335,3.2334,3.2372,3.2369,3.2526,3.2405,3.2405,3.2404,3.2404,0,3.1164,3.1264,3.135,3.1424,3.1537,3.159,3.17,3.1754,3.1832,3.1916,3.1943,3.2022,3.2085,3.2172,3.2212,3.2328,3.2353,3.2381,3.239,3.2379,3.2375,3.2414,3.2407,3.2409,3.2408,3.2407,3.2406,0,3.1251,3.1313,3.1446,3.1551,3.158,3.1659,3.1749,3.1821,3.1871,3.1977,3.2005,3.2084,3.2187,3.2246,3.2376,3.2404,3.2533,3.2538,3.2502,3.2507,3.2567,3.2561,3.2755,3.2783,3.2643,3.2644,3.2645,0,3.1329,3.1407,3.1521,3.158,3.1634,3.1729,3.1793,3.1848,3.1913,3.2022,3.2081,3.2186,3.2274,3.2438,3.2506,3.2606,3.2614,3.2675,3.2629,3.2615,3.2615,3.261,3.2618,3.2683,3.2684,3.2685,3.2686,0,3.146,3.1487,3.1578,3.168,3.1756,3.1839,3.1921,3.1968,3.2036,3.2108,3.2215,3.2282,3.2416,3.252,3.2625,3.2679,3.2694,3.27,3.272,3.2709,3.2685,3.2699,3.2524,3.2695,3.2694,3.2694,3.2693,3.2693,3.1546,3.1616,3.1707,3.1808,3.1876,3.1952,3.2026,3.2085,3.2175,3.2289,3.2315,3.2428,3.2516,3.2659,3.2716,3.2804,3.2793,3.2822,3.2829,3.2836,3.2838,3.2671,3.2823,3.2823,3.2823,3.2822,3.2822,0,3.1679,3.1738,3.1831,3.1945,3.2025,3.2032,3.2124,3.2189,3.2288,3.2369,3.2455,3.2577,3.2679,3.2754,3.2858,3.2914,3.2923,3.2939,3.2935,3.2948,3.2842,3.2814,3.293,3.293,3.293,3.2929,3.2929,3.2929,3.1757,3.1877,3.1914,3.2067,3.2126,3.2238,3.2289,3.2359,3.2424,3.256,3.2645,3.2694,3.2773,3.2882,3.2975,3.2995,3.3032,3.3047,3.3067,3.2967,3.2955,3.2944,3.2919,3.3054,3.3054,3.3166,3.3167,3.3168]}]]